TimeMDT,TemperatureF,Dew PointF,Humidity,Sea Level PressureIn,VisibilityMPH,Wind Direction,Wind SpeedMPH,Gust SpeedMPH,PrecipitationIn,Events,Conditions,WindDirDegrees,DateUTC
12:15 AM,44.6,33.8,66,30.05,10.0,South,3.5,-,N/A,,Clear,170,2012-10-03 06:15:00
12:35 AM,42.8,33.8,70,30.04,10.0,SE,3.5,-,N/A,,Clear,130,2012-10-03 06:35:00
12:55 AM,42.8,33.8,70,30.04,10.0,Calm,Calm,-,N/A,,Clear,0,2012-10-03 06:55:00
1:15 AM,42.8,32.0,66,30.03,10.0,Calm,Calm,-,N/A,,Clear,0,2012-10-03 07:15:00
1:35 AM,41.0,32.0,70,30.04,10.0,Calm,Calm,-,N/A,,Clear,0,2012-10-03 07:35:00
1:55 AM,37.4,32.0,81,30.05,10.0,Calm,Calm,-,N/A,,Clear,0,2012-10-03 07:55:00
2:15 AM,39.2,32.0,75,30.05,10.0,Calm,Calm,-,N/A,,Clear,0,2012-10-03 08:15:00
2:35 AM,39.2,33.8,81,30.06,10.0,Calm,Calm,-,N/A,,Clear,0,2012-10-03 08:35:00
2:55 AM,37.4,32.0,81,30.06,10.0,SE,4.6,-,N/A,,Clear,130,2012-10-03 08:55:00
3:15 AM,41.0,32.0,70,30.05,10.0,ESE,8.1,-,N/A,,Clear,110,2012-10-03 09:15:00
3:35 AM,39.2,33.8,81,30.06,10.0,Calm,Calm,-,N/A,,Clear,0,2012-10-03 09:35:00
3:55 AM,39.2,32.0,75,30.07,10.0,Calm,Calm,-,N/A,,Clear,0,2012-10-03 09:55:00
4:15 AM,37.4,32.0,81,30.06,10.0,ESE,5.8,-,N/A,,Clear,110,2012-10-03 10:15:00
4:35 AM,39.2,33.8,81,30.07,10.0,Calm,Calm,-,N/A,,Clear,0,2012-10-03 10:35:00
4:55 AM,41.0,33.8,76,30.07,10.0,Calm,Calm,-,N/A,,Clear,0,2012-10-03 10:55:00
5:15 AM,37.4,32.0,81,30.06,10.0,Calm,Calm,-,N/A,,Clear,0,2012-10-03 11:15:00
5:35 AM,37.4,32.0,81,30.07,10.0,SSE,4.6,-,N/A,,Clear,150,2012-10-03 11:35:00
5:55 AM,37.4,32.0,81,30.08,10.0,Calm,Calm,-,N/A,,Clear,0,2012-10-03 11:55:00
6:15 AM,35.6,32.0,87,30.07,10.0,SSE,4.6,-,N/A,,Clear,150,2012-10-03 12:15:00
6:35 AM,35.6,32.0,87,30.07,10.0,Calm,Calm,-,N/A,,Clear,0,2012-10-03 12:35:00
6:55 AM,35.6,32.0,87,30.09,10.0,Calm,Calm,-,N/A,,Clear,0,2012-10-03 12:55:00
7:15 AM,35.6,32.0,87,30.09,10.0,ESE,5.8,-,N/A,,Scattered Clouds,120,2012-10-03 13:15:00
7:35 AM,39.2,33.8,81,30.09,10.0,Calm,Calm,-,N/A,,Scattered Clouds,0,2012-10-03 13:35:00
7:55 AM,35.6,33.8,93,30.09,10.0,WNW,6.9,-,N/A,,Scattered Clouds,290,2012-10-03 13:55:00
8:15 AM,37.4,33.8,87,30.10,10.0,Calm,Calm,-,N/A,,Clear,0,2012-10-03 14:15:00
8:35 AM,37.4,33.8,87,30.10,10.0,Calm,Calm,-,N/A,,Clear,0,2012-10-03 14:35:00
8:55 AM,41.0,37.4,87,30.11,10.0,East,3.5,-,N/A,,Scattered Clouds,100,2012-10-03 14:55:00
9:15 AM,44.6,37.4,76,30.11,7.0,Calm,Calm,-,N/A,,Scattered Clouds,0,2012-10-03 15:15:00
9:55 AM,50.0,39.2,66,30.11,10.0,West,3.5,-,N/A,,Clear,260,2012-10-03 15:55:00
10:15 AM,51.8,39.2,62,30.11,10.0,NW,3.5,-,N/A,,Clear,320,2012-10-03 16:15:00
10:35 AM,53.6,37.4,54,30.11,10.0,Calm,Calm,-,N/A,,Clear,0,2012-10-03 16:35:00
10:55 AM,55.4,37.4,51,30.11,10.0,Calm,Calm,-,N/A,,Clear,0,2012-10-03 16:55:00
11:15 AM,59.0,37.4,45,30.11,10.0,Calm,Calm,-,N/A,,Clear,0,2012-10-03 17:15:00
11:35 AM,60.8,35.6,39,30.10,10.0,Calm,Calm,-,N/A,,Clear,0,2012-10-03 17:35:00
11:55 AM,62.6,33.8,34,30.10,10.0,Calm,Calm,-,N/A,,Clear,0,2012-10-03 17:55:00
12:15 PM,66.2,32.0,28,30.10,10.0,NW,3.5,-,N/A,,Scattered Clouds,320,2012-10-03 18:15:00
12:35 PM,71.6,32.0,23,30.09,10.0,SW,13.8,19.6,N/A,,Scattered Clouds,220,2012-10-03 18:35:00
1:15 PM,71.6,28.4,20,30.09,10.0,SW,18.4,26.5,N/A,,Scattered Clouds,230,2012-10-03 19:15:00
1:35 PM,73.4,26.6,18,30.09,10.0,WSW,18.4,-,N/A,,Scattered Clouds,240,2012-10-03 19:35:00
1:55 PM,73.4,26.6,18,30.09,10.0,WSW,19.6,24.2,N/A,,Clear,240,2012-10-03 19:55:00
2:15 PM,73.4,28.4,19,30.08,10.0,WSW,12.7,18.4,N/A,,Clear,250,2012-10-03 20:15:00
2:35 PM,73.4,30.2,20,30.08,10.0,West,17.3,21.9,N/A,,Scattered Clouds,260,2012-10-03 20:35:00
2:55 PM,73.4,26.6,18,30.08,10.0,West,18.4,23.0,N/A,,Scattered Clouds,270,2012-10-03 20:55:00
3:15 PM,73.4,24.8,16,30.08,10.0,WSW,11.5,21.9,N/A,,Scattered Clouds,240,2012-10-03 21:15:00
3:35 PM,73.4,23.0,15,30.08,10.0,WSW,12.7,-,N/A,,Clear,240,2012-10-03 21:35:00
3:55 PM,73.4,24.8,16,30.08,10.0,WSW,15.0,18.4,N/A,,Clear,240,2012-10-03 21:55:00
4:15 PM,73.4,21.2,14,30.09,10.0,WSW,15.0,19.6,N/A,,Clear,240,2012-10-03 22:15:00
4:35 PM,73.4,21.2,14,30.10,10.0,West,3.5,18.4,N/A,,Clear,280,2012-10-03 22:35:00
4:55 PM,71.6,19.4,14,30.10,10.0,SW,10.4,21.9,N/A,,Clear,230,2012-10-03 22:55:00
5:15 PM,71.6,14.0,11,30.11,10.0,Calm,Calm,-,N/A,,Clear,0,2012-10-03 23:15:00
5:35 PM,71.6,17.6,13,30.11,10.0,West,3.5,18.4,N/A,,Clear,280,2012-10-03 23:35:00
5:55 PM,69.8,15.8,13,30.11,10.0,NNW,5.8,-,N/A,,Clear,340,2012-10-03 23:55:00
6:15 PM,68.0,17.6,15,30.11,10.0,Calm,Calm,-,N/A,,Clear,0,2012-10-04 00:15:00
6:35 PM,64.4,19.4,18,30.11,10.0,North,10.4,-,N/A,,Clear,10,2012-10-04 00:35:00
6:55 PM,60.8,17.6,19,30.12,10.0,North,9.2,-,N/A,,Clear,10,2012-10-04 00:55:00
7:15 PM,59.0,15.8,19,30.13,10.0,ESE,3.5,-,N/A,,Clear,110,2012-10-04 01:15:00
7:35 PM,59.0,12.2,16,30.14,10.0,ESE,9.2,-,N/A,,Clear,110,2012-10-04 01:35:00
7:55 PM,55.4,10.4,17,30.14,10.0,East,9.2,-,N/A,,Clear,100,2012-10-04 01:55:00
8:15 PM,53.6,14.0,21,30.15,10.0,East,9.2,-,N/A,,Clear,90,2012-10-04 02:15:00
8:35 PM,51.8,14.0,22,30.15,10.0,ESE,10.4,-,N/A,,Clear,110,2012-10-04 02:35:00
8:55 PM,51.8,12.2,21,30.15,10.0,ESE,9.2,-,N/A,,Clear,110,2012-10-04 02:55:00
9:15 PM,51.8,8.6,18,30.15,10.0,NE,3.5,-,N/A,,Clear,40,2012-10-04 03:15:00
9:35 PM,50.0,8.6,19,30.16,10.0,ENE,6.9,-,N/A,,Clear,70,2012-10-04 03:35:00
10:15 PM,44.6,15.8,31,30.16,10.0,ENE,4.6,-,N/A,,Clear,70,2012-10-04 04:15:00
10:35 PM,41.0,19.4,42,30.17,10.0,Calm,Calm,-,N/A,,Clear,0,2012-10-04 04:35:00
10:55 PM,35.6,23.0,60,30.17,10.0,Calm,Calm,-,N/A,,Clear,0,2012-10-04 04:55:00
11:15 PM,37.4,21.2,52,30.18,10.0,Calm,Calm,-,N/A,,Clear,0,2012-10-04 05:15:00
11:35 PM,37.4,21.2,52,30.18,10.0,Calm,Calm,-,N/A,,Clear,0,2012-10-04 05:35:00
11:55 PM,44.6,12.2,27,30.18,10.0,SSE,4.6,-,N/A,,Clear,160,2012-10-04 05:55:00